Overview Statistics Trail Chart Weather Telemetry Raw packets
 

This is the latest recevied weather packets stored in our database for station/object K7DC. If no packets are shown the sender has not sent any weather packets the latest 10 day(s).

<< 34 35 36 37 38 39 40 >>
Time Temp. Humidity Pressure Rain* Wind** Luminosity Snow
1788402957 27.78° C 63% 1015.1 hPa 0 mm - 0 W/m² -
1788402651 27.78° C 63% 1015.1 hPa 0 mm - 0 W/m² -
1788402351 27.78° C 62% 1015.2 hPa 0 mm - 0 W/m² -
1788402050 27.78° C 63% 1015 hPa 0 mm - 0 W/m² -
1788401745 27.78° C 62% 1014.7 hPa 0 mm - 0 W/m² -
1788401439 27.78° C 62% 1014.7 hPa 0 mm - 0 W/m² -
1788401136 27.78° C 61% 1015.1 hPa 0 mm - 0 W/m² -
1788400835 28.33° C 60% 1014.8 hPa 0 mm - 0 W/m² -
1788400531 28.33° C 60% 1014.8 hPa 0 mm - 1 W/m² -
1788400226 28.33° C 60% 1015 hPa 0 mm - 3 W/m² -
1788399925 28.33° C 59% 1014.8 hPa 0 mm - 5 W/m² -
1788399620 28.89° C 58% 1015.1 hPa 0 mm - 7 W/m² -
1788399319 28.89° C 57% 1015.2 hPa 0 mm - 11 W/m² -
1788399014 28.89° C 57% 1015.3 hPa 0 mm - 15 W/m² -
1788398714 28.89° C 56% 1015 hPa 0 mm - 17 W/m² -
1788398413 28.89° C 55% 1015 hPa 0 mm - 20 W/m² -
1788398113 28.89° C 55% 1014.7 hPa 0 mm - 26 W/m² -
1788397808 29.44° C 54% 1015 hPa 0 mm - 25 W/m² -
1788397503 29.44° C 52% 1014.8 hPa 0 mm - 24 W/m² -
1788397201 29.44° C 51% 1014.7 hPa 0 mm - 27 W/m² -
1788396896 29.44° C 51% 1015 hPa 0 mm - 32 W/m² -
1788396593 29.44° C 51% 1015.1 hPa 0 mm - 44 W/m² -
1788396292 29.44° C 51% 1015 hPa 0 mm - 49 W/m² -
1788395988 30° C 51% 1014.8 hPa 0 mm - 46 W/m² -
1788395688 30° C 50% 1015 hPa 0 mm - 52 W/m² -

* Rain latest hour (hover to see other rain measurements)
** Current wind speed in m/s (hover to see current wind gust speed)